www.pogodaiklimat.ru
ПОГОДА в Дибругархе
Время
(UTC), дата
03 6.04
06 6.04
09 6.04
12 6.04
15 6.04
18 6.04
21 6.04
00 7.04
03 7.04
06 7.04
09 7.04
12 7.04
15 7.04
18 7.04
00 8.04
03 8.04
06 8.04
09 8.04
12 8.04
15 8.04
18 8.04
21 8.04
00 9.04
03 9.04
06 9.04
09 9.04
12 9.04
15 9.04
18 9.04
21 9.04
00 10.04
03 10.04
06 10.04
09 10.04
12 10.04
15 10.04
18 10.04
21 10.04
00 11.04
03 11.04
06 11.04
09 11.04
12 11.04
15 11.04
18 11.04
21 11.04
00 12.04
03 12.04
06 12.04
09 12.04
12 12.04
15 12.04
18 12.04
21 12.04
Ветер
(напр.,м/с)
Видим. Явления Облачность Т
(С)
Тd
(С)
f
(%)
Тe
(С)
Тes
(С)
Комфортность P
(гПа)
Po
(гПа)
Тmin
(С)
Tmax
(С)
R
(мм)
R24
(мм)
S
(см)
В 2 4000 м мгла ясно +24.8 +15.7 57 +28 +40 жарко 1012.7 999.9 +16.4
В 3 4000 м мгла ясно +30.8 +14.0 36 +32 +50 жарко 1009.7 997.2
З 2 4000 м мгла ясно +33.4 +17.2 38 +37 +46 очень
душно
1006.2 993.8
СВ 2 4000 м мгла 4/1 600 м
[Sc Ac trans]
+30.6 +17.0 44 +34 +34 очень
душно
1006.4 993.9 +33.8
В 2 4000 м мгла 4/1 600 м
[Sc Ac trans]
+23.5 +17.5 69 +27 +27 душно 1010.3 997.5
штиль 0 4000 м мгла 4/1 600 м
[Sc Ac trans]
+22.4 +17.5 74 +27 +27 душно 1010.8 997.9
штиль 0 4000 м дымка 4/1 600 м
[Sc Ac trans]
+21.2 +17.8 81 +25 +25 комфорт 1011.1 998.2
штиль 0 4000 м мгла 4/0
[Ac trans]
+18.8 +16.8 88 +20 +20 1012.0 998.9
ЮВ 2 4000 м мгла 5/3 600 м
[Sc Ac trans]
+24.4 +17.0 63 +28 +36 душно 1013.6 1000.8 +18.0
ЮВ 2 4000 м мгла 6/4 600 м
[Sc Ac trans]
+30.6 +15.0 39 +33 +42 душно 1011.3 998.7
ЮЗ 2 4000 м мгла 6/4 600 м
[Sc Ac trans]
+32.8 +18.7 43 +38 +42 очень
душно
1007.2 994.8
штиль 0 4000 м мгла 8/4 600 м
[Sc Ac trans]
+30.4 +17.2 45 +34 +34 очень
душно
1006.0 993.5 +33.5
штиль 0 2000 м мгла 6/3 600 м
[Sc Ac trans]
+24.4 +18.8 71 +29 +29 душно 1009.2 996.4
штиль 0 2000 м дымка 6/3 600 м
[Sc Ac trans]
+23.2 +19.1 78 +30 +30 очень
душно
1009.8 997.0
штиль 0 1000 м дымка {дождь} 9/4 540 м
[Cb calv Ac trans]
+21.4 +20.5 95 +27 +27 душно 1010.8 997.9 0.8
В 3 2000 м слаб. дождь 10/4 240 м
[Cb calv As op]
+21.6 +20.1 91 +27 +28 душно 1013.0 1000.0 +20.4 2
В 3 2000 м дымка {дождь} 10/4 300 м
[Cb calv Ac trans]
+22.4 +20.2 87 +29 +33 очень
душно
1012.6 999.7 0.0
В 2 2000 м дымка {дождь} 10/4 300 м
[Sc Ac trans]
+23.0 +19.9 83 +30 +32 очень
душно
1010.0 997.1 0.0
В 2 2000 м дымка {дождь} 9/4 540 м
[Sc Ac trans]
+21.8 +18.6 82 +27 +27 душно 1009.6 996.7 +24.6 0.0
штиль 0 2000 м дымка 9/5 600 м
[Cb calv Ac trans]
+22.0 +18.8 82 +27 +27 душно 1010.2 997.3 0.0
СВ 2 2000 м дымка {дождь} 9/5 600 м
[Cb calv Ac trans]
+21.0 +19.4 91 +27 +27 душно 1011.0 998.0 1
штиль 0 2000 м слаб. дождь 10/5 300 м
[Cb calv As op]
+20.0 +19.0 94 +23 +23 комфорт 1010.5 997.5 2
В 2 1000 м дымка {дождь} 9/5 600 м
[Cb calv Ac trans]
+20.2 +19.6 96 +25 +25 комфорт 1011.2 998.2 4
В 3 4000 м дымка 8/4 600 м
[Sc Ac trans]
+23.0 +19.6 81 +30 +33 очень
душно
1012.9 1000.0 +19.4 4
СВ 4 4000 м мгла 8/4 600 м
[Sc Ac trans]
+26.6 +19.5 65 +32 +37 очень
душно
1011.5 998.8
В 4 4000 м мгла 8/4 600 м
[Sc Ac trans]
+27.8 +21.5 69 +36 +38 очень
душно
1009.1 996.5
В 3 2000 м мгла {дождь} 9/5 240 м
[St Ac trans]
+25.0 +20.1 74 +31 +31 очень
душно
1008.1 995.4 +28.4 0.0
СВ 2 2000 м гроза, ливневой дождь 10/5 240 м
[Cb calv As op]
+22.2 +20.3 89 +28 +28 душно 1009.3 996.4 5
штиль 0 2000 м слаб. дождь {гроза} 10/5 240 м
[Cb calv As op]
+20.8 +19.5 92 +25 +25 комфорт 1010.5 997.5 9
штиль 0 2000 м дымка {дождь} 10/5 240 м
[Cb calv As op]
+20.0 +18.7 92 +23 +23 комфорт 1010.7 997.7 10
СВ 3 2000 м дымка {дождь} 8/5 300 м
[Frnb Ac trans]
+19.8 +18.5 92 +23 +23 комфорт 1011.0 998.0 10
СВ 3 2000 м слаб. дождь 10/5 300 м
[Cb calv Ac trans]
+22.6 +19.5 83 +29 +31 очень
душно
1013.0 1000.1 +19.0 11
В 4 4000 м мгла {дождь} 9/4 540 м
[Cb calv Ac trans]
+27.0 +20.0 66 +33 +37 очень
душно
1012.0 999.3 0.1
СВ 3 4000 м мгла {дождь} 6/4 600 м
[Sc Ac trans]
+30.4 +23.5 67 +41 +45 опасность
перегрева
1008.2 995.7 0.1
В 2 4000 м гроза, ливневой дождь 10/5 240 м
[Cb calv As op]
+27.2 +22.2 74 +35 +35 очень
душно
1008.7 996.0 +30.8 0.1
штиль 0 2000 м дымка {гроза, дождь} 10/4 540 м
[Cb calv Ac trans]
+22.0 +19.4 85 +27 +27 душно 1009.4 996.5 9
штиль 0 2000 м гроза, ливневой дождь 10/4 540 м
[Cb calv Ac trans]
+19.6 +17.8 89 +22 +22 комфорт 1010.2 997.2 9
штиль 0 2000 м дымка {гроза, дождь} 10/4 540 м
[Cb calv Ac trans]
+18.4 +16.9 91 +19 +19 1010.9 997.8 14
В 3 2000 м дымка {гроза, дождь} 8/4 540 м
[Sc Ac trans]
+19.6 +18.6 94 +22 +23 комфорт 1012.6 999.6 14
В 3 2000 м слаб. дождь 10/5 240 м
[Cb calv As op]
+22.0 +19.2 84 +27 +28 душно 1014.0 1001.1 +18.4 14
В 4 4000 м мгла {гроза, дождь} 9/4 540 м
[Cb calv Ac trans]
+24.4 +19.1 72 +29 +33 душно 1014.0 1001.2 2
В 4 4000 м мгла 9/4 540 м
[Cb calv Ac trans]
+25.4 +19.2 69 +31 +32 очень
душно
1011.8 999.0 2
В 4 2000 м мгла 9/5 540 м
[Cb calv Ac trans]
+23.8 +17.7 69 +28 +28 душно 1012.0 999.2 +26.6 2
штиль 0 2000 м дымка 9/4 540 м
[Cb calv Ac trans]
+21.0 +18.5 86 +25 +25 комфорт 1011.7 998.7 2
штиль 0 2000 м дымка 9/4 540 м
[Cb calv Ac trans]
+20.4 +18.2 87 +24 +24 комфорт 1012.1 999.1 2
штиль 0 2000 м дымка 9/4 540 м
[Cb calv Ac trans]
+19.8 +17.9 89 +22 +22 комфорт 1012.5 999.5 2
Ю 2 2000 м дымка 8/4 600 м
[Cb calv Ac trans]
+19.0 +18.0 94 +21 +22 комфорт 1013.3 1000.2 2
СВ 3 4000 м мгла 4/1 600 м
[Sc Ac trans]
+25.2 +17.2 61 +29 +36 душно 1014.9 1002.1 +18.0 2
В 5 4000 м мгла 5/1 600 м
[Sc Ac trans]
+29.0 +16.5 47 +32 +40 душно 1013.3 1000.7
В 4 4000 м мгла 5/1 600 м
[Sc Ac trans]
+30.8 +20.3 54 +38 +42 очень
душно
1009.1 996.6
В 3 4000 м мгла 5/1 540 м
[Sc Ac trans]
+27.0 +21.3 71 +34 +34 очень
душно
1008.5 995.8 +31.4
штиль 0 4000 м мгла 5/1 600 м
[Sc Ac trans]
+25.0 +21.5 81 +32 +32 очень
душно
1010.7 997.9
штиль 0 4000 м мгла 5/1 600 м
[Sc Ac trans]
+24.0 +21.0 83 +30 +30 очень
душно
1011.2 998.4
штиль 0 2000 м дымка 5/1 600 м
[Sc Ac trans]
+23.2 +20.8 86 +31 +31 очень
душно
1011.3 998.4
Местоположение метеостанции Дибругарх (Ассам, Индия): широта 27.48 долгота 95.02 высота над уровнем моря 111 м.
В архиве по умолчанию представлена погода в Дибругархе за последнюю неделю. Архивные данные за месяц целиком и за предыдущие месяцы, начиная с января 2011 года, Вы можете получить, выбрав интересующий диапазон дат из раскрывающегося списка и нажав кнопку "Найти!".
*Определитесь, кто Вы:
Внимание! Время в таблицах - всемирное. Для получения местного времени необходимо прибавить поправку, которая равна 5.5 ч.
Смотрите также архив погоды в соседних городах и на ближайших метеорологических станциях:
Партнеры нашего сайта:      
Пояснения к столбцам:
  • Ветер - указаны скорость ветра в м/с - средняя за 10 мин, порывы в срок и между сроками (в фигурных скобках) и направление, откуда дует ветер: С - северный,
  • СВ - северо-восточный, В - восточный, ЮВ - юго-восточный, Ю - южный, ЮЗ - юго-западный, З - западный, СЗ - северо-западный.
  • Видимость - горизонтальная дальность видимости в метрах или километрах. При видимости от 1 до 10 км при отсутствии осадков обычно наблюдается дымка, при ухудшении видимости до 1 км и менее - туман. В сухую погоду видимость может ухудшаться дымом, пылью или мглою.
  • Явления - указаны атмосферные явления, наблюдавшиеся в срок или в последний час перед сроком; фигурными скобками обозначены явления, наблюдавшиеся между сроками (за 1-3 часа до срока); квадратными скобками обозначены град или гололедные отложения с указанием их диаметра в мм.
  • Облачность - указаны через наклонную черту общая и нижняя облачность в баллах и высота нижней границы облаков в метрах; квадратными скобками обозначены формы облаков: Ci - перистые, Cs - перисто-слоистые, Cc - перисто-кучевые, Ac - высококучевые, As - высокослоистые, Sc - слоисто-кучевые, Ns - слоисто-дождевые, Cu - кучевые, Cb - кучево-дождевые. Подробнее классификацию облаков см. в Атласе облаков (PDF).
  • T - Температура воздуха - температура, измеренная на высоте 2 м над землей.
  • Td - Температура точки росы - температура, при понижении до которой содержащийся в воздухе водяной пар достигнет насыщения.
  • f - Относительная влажность воздуха - влажноcть воздуха, измеренная на высоте 2 м над землей.
  • Te - Эффективная температура - температура, которую ощущает одетый по сезону человек в тени. Характеристика душности погоды. При расчете учитывается влияние влажности воздуха и скорости ветра на теплоощущения человека.
  • Tes - Эффективная температура на солнце - температура, которую ощущает человек, с поправкой на солнечный нагрев. Характеристика знойности погоды. Зависит от высоты солнца над горизонтом, облачности и скорости ветра. Ночью, в пасмурную погоду, а также при ветре 12 м/с и более поправка равна нулю.
  • P - Атмосферное давление - приведенное к уровню моря атмосферное давление.
  • Po - Атмосферное давление - измеренное на уровне метеостанции атмосферное давление.
  • Tmin - Минимальная температура - минимум температуры воздуха на высоте 2 м над землей.
  • Tmax - Максимальная температура - максимум температуры воздуха на высоте 2 м над землей.
  • R - Количество осадков - Количество выпавших осадков за период времени, мм. При наведении курсора мыши на число - период времени, за который выпало указанное количество осадков.
  • R24 - Количество осадков - Количество выпавших осадков за 24 часа, мм.
  • S - Снежный покров - Высота снежного покрова, см. При наведении курсора мыши на число - состояние снежного покрова и степень покрытия местности в баллах.